Вернуться в каталог

STARLINK-36102

АктивенСвязьVLEO
NORAD 66849·PAYLOAD·🇺🇸 United States

Запущен Dec 2, 2025 с Cape Canaveral Space Force Station

Loading…

Ближайшие Пролёты (ближайшие 24 часа)

TLE

СвежийSource: CelesTrak SupGP

Эпоха: Sep 15, 2026, 04:08 UTC

1 66849C 25281B   26258.17270833  .00054018  00000+0  19560-2 0  2583
2 66849  43.0033 353.5791 0001507 266.0567  40.8113 15.27560422    18

Отслеживайте STARLINK-36102 в реальном времени с AllMySat

Download on the App Store